START_TIME,STEP,MOV.,AL01,t_acc.,AL02,t_acc.,E37,t_acc.,H21,t_acc.
1981-08-30 18:00:34.810 ,3,1,0.,24.0,0.,24.0,1.,24.0,0.,24.0
1981-08-30 18:00:58.810 ,2,1,0.,24.0,0.,24.0,1.,24.0,0.,24.0
1981-08-30 18:01:22.810 ,1,1,0.,24.0,0.,24.0,0.,24.0,0.,24.0
1981-08-30 18:01:46.810 ,0,1,0.,24.0,0.,24.0,0.,24.0,0.,24.0
1981-08-30 18:02:10.810 ,0,1,0.,24.0,0.,24.0,0.,24.0,0.,24.0
1981-08-30 18:02:34.810 ,1,1,0.,24.0,0.,24.0,0.,24.0,0.,24.0
1981-08-30 18:02:58.810 ,2,1,0.,24.0,0.,24.0,0.,24.0,0.,24.0
1981-08-30 18:03:22.810 ,3,1,0.,24.0,0.,24.0,0.,24.0,0.,24.0
1981-08-30 18:03:46.810 ,3,0,0.,24.0,0.,24.0,1.,24.0,0.,24.0
1981-08-30 18:04:10.810 ,4,1,0.,24.0,0.,24.0,1.,24.0,0.,24.0
1981-08-30 18:04:34.810 ,4,0,0.,24.0,0.,24.0,0.,24.0,0.,24.0
1981-08-30 18:04:58.810 ,5,1,0.,24.0,0.,24.0,0.,24.0,0.,24.0
1981-08-30 18:05:22.810 ,5,0,0.,24.0,0.,24.0,2.,24.0,0.,24.0
1981-08-30 18:05:46.810 ,6,1,0.,24.0,0.,24.0,0.,24.0,0.,24.0
1981-08-30 18:06:10.810 ,6,0,0.,24.0,1.,24.0,0.,24.0,0.,24.0
1981-08-30 18:06:34.810 ,7,1,8.,24.0,0.,24.0,0.,24.0,0.,24.0
1981-08-30 18:06:58.810 ,7,0,32.,24.0,0.,24.0,1.,24.0,0.,24.0
1981-08-30 18:07:22.810 ,7,1,38.,24.0,0.,24.0,0.,24.0,0.,24.0
1981-08-30 18:07:46.810 ,7,0,23.,24.0,0.,24.0,0.,24.0,0.,24.0
1981-08-30 18:08:10.810 ,6,1,18.,24.0,0.,24.0,1.,24.0,0.,24.0
1981-08-30 18:08:34.810 ,6,0,0.,24.0,0.,24.0,0.,24.0,0.,24.0
1981-08-30 18:08:58.810 ,5,1,0.,24.0,0.,24.0,1.,24.0,0.,24.0
1981-08-30 18:09:22.810 ,5,0,0.,24.0,0.,24.0,0.,24.0,0.,24.0
1981-08-30 18:09:46.810 ,4,1,0.,24.0,0.,24.0,0.,24.0,0.,24.0
1981-08-30 18:10:10.810 ,4,0,0.,24.0,1.,24.0,1.,24.0,0.,24.0
1981-08-30 18:10:34.810 ,3,1,0.,24.0,0.,24.0,1.,24.0,0.,24.0
1981-08-30 18:10:58.810 ,3,0,0.,24.0,0.,24.0,1.,24.0,0.,24.0
1981-08-30 18:11:22.810 ,2,1,0.,24.0,0.,24.0,0.,24.0,0.,24.0
1981-08-30 18:11:46.810 ,2,0,0.,24.0,0.,24.0,0.,24.0,0.,24.0
1981-08-30 18:12:10.810 ,1,1,0.,24.0,0.,24.0,0.,24.0,0.,24.0
1981-08-30 18:12:34.810 ,1,0,0.,24.0,0.,24.0,0.,24.0,0.,24.0
1981-08-30 18:12:58.810 ,0,1,0.,24.0,0.,24.0,0.,24.0,0.,24.0
1981-08-30 18:13:22.810 ,0,0,0.,24.0,0.,24.0,0.,24.0,0.,24.0
1981-08-30 18:13:46.810 ,0,1,0.,24.0,0.,24.0,0.,24.0,0.,24.0
1981-08-30 18:14:10.810 ,0,0,0.,24.0,1.,24.0,0.,24.0,0.,24.0
1981-08-30 18:14:34.810 ,1,1,0.,24.0,0.,24.0,0.,24.0,0.,24.0
1981-08-30 18:14:58.810 ,1,0,0.,24.0,0.,24.0,0.,24.0,0.,24.0
1981-08-30 18:15:22.810 ,2,1,0.,24.0,0.,24.0,0.,24.0,0.,24.0
1981-08-30 18:15:46.810 ,2,0,0.,24.0,0.,24.0,2.,24.0,0.,24.0
1981-08-30 18:16:10.810 ,3,1,0.,24.0,0.,24.0,0.,24.0,0.,24.0
1981-08-30 18:16:34.810 ,4,1,0.,24.0,0.,24.0,1.,24.0,0.,24.0
1981-08-30 18:16:58.810 ,5,1,0.,24.0,0.,24.0,0.,24.0,0.,24.0
1981-08-30 18:17:22.810 ,6,1,0.,24.0,0.,24.0,1.,24.0,0.,24.0
1981-08-30 18:17:46.810 ,7,1,12.,24.0,0.,24.0,0.,24.0,0.,24.0
1981-08-30 18:18:10.810 ,7,1,36.,24.0,0.,24.0,0.,24.0,0.,24.0
1981-08-30 18:18:34.810 ,6,1,28.,24.0,0.,24.0,0.,24.0,0.,24.0
1981-08-30 18:18:58.810 ,5,1,1.,24.0,0.,24.0,0.,24.0,0.,24.0
1981-08-30 18:19:22.810 ,4,1,0.,24.0,0.,24.0,0.,24.0,0.,24.0
1981-08-30 18:19:46.810 ,3,1,0.,24.0,0.,24.0,0.,24.0,0.,24.0
1981-08-30 18:20:10.810 ,2,1,0.,24.0,0.,24.0,0.,24.0,0.,24.0
1981-08-30 18:20:34.810 ,1,1,2.,24.0,0.,24.0,0.,24.0,0.,24.0
1981-08-30 18:20:58.810 ,0,1,0.,24.0,0.,24.0,0.,24.0,0.,24.0
1981-08-30 18:21:22.810 ,0,1,0.,24.0,0.,24.0,1.,24.0,0.,24.0
1981-08-30 18:21:46.810 ,1,1,0.,24.0,0.,24.0,1.,24.0,0.,24.0
1981-08-30 18:22:10.810 ,2,1,0.,24.0,0.,24.0,1.,24.0,0.,24.0
1981-08-30 18:22:34.810 ,3,1,0.,24.0,0.,24.0,0.,24.0,0.,24.0
1981-08-30 18:22:58.810 ,3,0,1.,24.0,0.,24.0,0.,24.0,0.,24.0
1981-08-30 18:23:22.810 ,4,1,0.,24.0,0.,24.0,0.,24.0,0.,24.0
1981-08-30 18:23:46.810 ,4,0,0.,24.0,0.,24.0,0.,24.0,0.,24.0
1981-08-30 18:24:10.810 ,5,1,0.,24.0,0.,24.0,0.,24.0,0.,24.0
1981-08-30 18:24:34.810 ,5,0,0.,24.0,0.,24.0,1.,24.0,0.,24.0
1981-08-30 18:24:58.810 ,6,1,0.,24.0,0.,24.0,0.,24.0,0.,24.0
1981-08-30 18:25:22.810 ,6,0,0.,24.0,0.,24.0,0.,24.0,0.,24.0
1981-08-30 18:25:46.810 ,7,1,9.,24.0,0.,24.0,1.,24.0,0.,24.0
1981-08-30 18:26:10.810 ,7,0,26.,24.0,0.,24.0,0.,24.0,0.,24.0
1981-08-30 18:26:34.810 ,7,1,40.,24.0,0.,24.0,0.,24.0,0.,24.0
1981-08-30 18:26:58.810 ,7,0,32.,24.0,0.,24.0,0.,24.0,0.,24.0
1981-08-30 18:27:22.810 ,6,1,29.,24.0,0.,24.0,0.,24.0,0.,24.0
1981-08-30 18:27:46.810 ,6,0,0.,24.0,0.,24.0,0.,24.0,0.,24.0
1981-08-30 18:28:10.810 ,5,1,0.,24.0,0.,24.0,0.,24.0,0.,24.0
1981-08-30 18:28:34.810 ,5,0,0.,24.0,0.,24.0,1.,24.0,0.,24.0
1981-08-30 18:28:58.810 ,4,1,0.,24.0,0.,24.0,1.,24.0,0.,24.0
1981-08-30 18:29:22.810 ,4,0,0.,24.0,1.,24.0,0.,24.0,0.,24.0
1981-08-30 18:29:46.810 ,3,1,0.,24.0,0.,24.0,1.,24.0,0.,24.0
1981-08-30 18:30:10.810 ,3,0,0.,24.0,0.,24.0,0.,24.0,0.,24.0
1981-08-30 18:30:34.810 ,2,1,0.,24.0,0.,24.0,0.,24.0,0.,24.0
1981-08-30 18:30:58.810 ,2,0,0.,24.0,0.,24.0,0.,24.0,0.,24.0
1981-08-30 18:31:22.810 ,1,1,0.,24.0,0.,24.0,0.,24.0,0.,24.0
1981-08-30 18:31:46.810 ,1,0,1.,24.0,0.,24.0,0.,24.0,0.,24.0
1981-08-30 18:32:10.810 ,0,1,0.,24.0,0.,24.0,0.,24.0,0.,24.0
1981-08-30 18:32:34.810 ,0,0,0.,24.0,0.,24.0,0.,24.0,0.,24.0
1981-08-30 18:32:58.810 ,0,1,0.,24.0,0.,24.0,1.,24.0,0.,24.0
1981-08-30 18:33:22.810 ,0,0,0.,24.0,0.,24.0,1.,24.0,0.,24.0
1981-08-30 18:33:46.810 ,1,1,0.,24.0,0.,24.0,0.,24.0,0.,24.0
1981-08-30 18:34:10.810 ,1,0,0.,24.0,0.,24.0,0.,24.0,0.,24.0
1981-08-30 18:34:34.810 ,2,1,0.,24.0,0.,24.0,1.,24.0,0.,24.0
1981-08-30 18:34:58.810 ,2,0,0.,24.0,0.,24.0,0.,24.0,0.,24.0
1981-08-30 18:35:22.810 ,3,1,0.,24.0,0.,24.0,1.,24.0,0.,24.0
1981-08-30 18:35:46.810 ,4,1,0.,24.0,0.,24.0,0.,24.0,0.,24.0
1981-08-30 18:36:10.810 ,5,1,0.,24.0,0.,24.0,0.,24.0,0.,24.0
1981-08-30 18:36:34.810 ,6,1,0.,24.0,0.,24.0,1.,24.0,0.,24.0
1981-08-30 18:36:58.810 ,7,1,6.,24.0,0.,24.0,0.,24.0,0.,24.0
1981-08-30 18:37:22.810 ,7,1,32.,24.0,0.,24.0,1.,24.0,0.,24.0
1981-08-30 18:37:46.810 ,6,1,24.,24.0,0.,24.0,0.,24.0,0.,24.0
1981-08-30 18:38:10.810 ,5,1,0.,24.0,0.,24.0,0.,24.0,0.,24.0
1981-08-30 18:38:34.810 ,4,1,0.,24.0,0.,24.0,0.,24.0,0.,24.0
1981-08-30 18:38:58.810 ,3,1,0.,24.0,0.,24.0,0.,24.0,0.,24.0
1981-08-30 18:39:22.810 ,2,1,0.,24.0,0.,24.0,0.,24.0,0.,24.0
1981-08-30 18:39:46.810 ,1,1,0.,24.0,0.,24.0,0.,24.0,0.,24.0
1981-08-30 18:40:10.810 ,0,1,0.,24.0,1.,24.0,0.,24.0,0.,24.0
1981-08-30 18:40:34.810 ,0,1,0.,24.0,0.,24.0,0.,24.0,0.,24.0
1981-08-30 18:40:58.810 ,1,1,0.,24.0,0.,24.0,0.,24.0,0.,24.0
1981-08-30 18:41:22.810 ,0,0,0.,24.0,0.,24.0,0.,24.0,0.,24.0
1981-08-30 18:42:02.410 ,0,0,,0,,0,,0,,0
1981-08-30 18:42:10.810 ,0,0,1.,24.0,0.,24.0,0.,24.0,0.,24.0
1981-08-30 18:42:34.810 ,4,1,0.,24.0,0.,24.0,0.,24.0,0.,24.0
1981-08-30 18:42:58.810 ,4,0,0.,24.0,0.,24.0,0.,24.0,0.,24.0
1981-08-30 18:43:22.810 ,5,1,0.,24.0,0.,24.0,0.,24.0,0.,24.0
1981-08-30 18:43:46.810 ,5,0,0.,24.0,0.,24.0,1.,24.0,0.,24.0
1981-08-30 18:44:10.810 ,6,1,0.,24.0,0.,24.0,0.,24.0,0.,24.0
1981-08-30 18:44:34.810 ,6,0,0.,24.0,0.,24.0,0.,24.0,0.,24.0
1981-08-30 18:44:58.810 ,7,1,8.,24.0,0.,24.0,1.,24.0,0.,24.0
1981-08-30 18:45:22.810 ,7,0,40.,24.0,0.,24.0,0.,24.0,0.,24.0
1981-08-30 18:45:46.810 ,7,1,23.,24.0,0.,24.0,1.,24.0,0.,24.0
1981-08-30 18:46:10.810 ,7,0,34.,24.0,0.,24.0,1.,24.0,0.,24.0
1981-08-30 18:46:34.810 ,6,1,21.,24.0,0.,24.0,0.,24.0,0.,24.0
1981-08-30 18:46:58.810 ,6,0,0.,24.0,0.,24.0,0.,24.0,0.,24.0
1981-08-30 18:47:22.810 ,5,1,0.,24.0,0.,24.0,1.,24.0,0.,24.0
1981-08-30 18:47:46.810 ,5,0,0.,24.0,0.,24.0,1.,24.0,0.,24.0
1981-08-30 18:48:10.810 ,4,1,0.,24.0,0.,24.0,0.,24.0,0.,24.0
1981-08-30 18:48:34.810 ,4,0,0.,24.0,0.,24.0,0.,24.0,0.,24.0
1981-08-30 18:48:58.810 ,3,1,0.,24.0,0.,24.0,2.,24.0,0.,24.0
1981-08-30 18:49:22.810 ,3,0,0.,24.0,0.,24.0,1.,24.0,0.,24.0
1981-08-30 18:49:46.810 ,2,1,0.,24.0,0.,24.0,0.,24.0,0.,24.0
1981-08-30 18:50:10.810 ,2,0,0.,24.0,0.,24.0,0.,24.0,0.,24.0
1981-08-30 18:50:34.810 ,1,1,0.,24.0,0.,24.0,0.,24.0,0.,24.0
1981-08-30 18:50:58.810 ,1,0,0.,24.0,0.,24.0,1.,24.0,0.,24.0
1981-08-30 18:51:22.810 ,0,1,0.,24.0,0.,24.0,1.,24.0,0.,24.0
1981-08-30 18:51:46.810 ,0,0,0.,24.0,0.,24.0,0.,24.0,0.,24.0
1981-08-30 18:52:10.810 ,0,1,0.,24.0,0.,24.0,0.,24.0,0.,24.0
1981-08-30 18:52:34.810 ,0,0,0.,24.0,0.,24.0,1.,24.0,0.,24.0
1981-08-30 18:52:58.810 ,1,1,0.,24.0,0.,24.0,0.,24.0,0.,24.0
1981-08-30 18:53:22.810 ,1,0,0.,24.0,0.,24.0,0.,24.0,0.,24.0
1981-08-30 18:53:46.810 ,2,1,0.,24.0,0.,24.0,0.,24.0,0.,24.0
1981-08-30 18:54:10.810 ,2,0,0.,24.0,0.,24.0,0.,24.0,0.,24.0
1981-08-30 18:54:34.810 ,3,1,0.,24.0,0.,24.0,0.,24.0,0.,24.0
1981-08-30 18:54:58.810 ,4,1,1.,24.0,0.,24.0,1.,24.0,0.,24.0
1981-08-30 18:55:22.810 ,5,1,0.,24.0,0.,24.0,0.,24.0,0.,24.0
1981-08-30 18:55:46.810 ,6,1,0.,24.0,0.,24.0,1.,24.0,0.,24.0
1981-08-30 18:56:10.810 ,7,1,10.,24.0,0.,24.0,1.,24.0,0.,24.0
1981-08-30 18:56:34.810 ,7,1,25.,24.0,0.,24.0,0.,24.0,0.,24.0
1981-08-30 18:56:58.810 ,6,1,24.,24.0,0.,24.0,0.,24.0,0.,24.0
1981-08-30 18:57:22.810 ,5,1,0.,24.0,0.,24.0,0.,24.0,0.,24.0
1981-08-30 18:57:46.810 ,4,1,0.,24.0,0.,24.0,0.,24.0,0.,24.0
1981-08-30 18:58:10.810 ,3,1,0.,24.0,0.,24.0,1.,24.0,0.,24.0
1981-08-30 18:58:34.810 ,2,1,0.,24.0,0.,24.0,0.,24.0,0.,24.0
1981-08-30 18:58:58.810 ,1,1,0.,24.0,0.,24.0,0.,24.0,0.,24.0
1981-08-30 18:59:22.810 ,0,1,0.,24.0,0.,24.0,0.,24.0,0.,24.0
1981-08-30 18:59:46.810 ,0,1,0.,24.0,0.,24.0,0.,24.0,0.,24.0
1981-08-30 19:00:10.810 ,1,1,0.,24.0,0.,24.0,1.,24.0,0.,24.0
1981-08-30 19:00:34.810 ,2,1,0.,24.0,0.,24.0,0.,24.0,0.,24.0
1981-08-30 19:00:58.810 ,3,1,0.,24.0,1.,24.0,0.,24.0,0.,24.0
1981-08-30 19:01:22.810 ,3,0,0.,24.0,0.,24.0,1.,24.0,0.,24.0
1981-08-30 19:01:46.810 ,4,1,0.,24.0,0.,24.0,0.,24.0,0.,24.0
1981-08-30 19:02:10.810 ,4,0,0.,24.0,0.,24.0,0.,24.0,0.,24.0
1981-08-30 19:02:34.810 ,5,1,0.,24.0,0.,24.0,1.,24.0,0.,24.0
1981-08-30 19:02:58.810 ,5,0,0.,24.0,0.,24.0,0.,24.0,0.,24.0
1981-08-30 19:03:22.810 ,6,1,0.,24.0,0.,24.0,1.,24.0,0.,24.0
1981-08-30 19:03:46.810 ,6,0,0.,24.0,0.,24.0,0.,24.0,0.,24.0
1981-08-30 19:04:10.810 ,7,1,2.,24.0,0.,24.0,0.,24.0,0.,24.0
1981-08-30 19:04:34.810 ,7,0,36.,24.0,0.,24.0,0.,24.0,0.,24.0
1981-08-30 19:04:58.810 ,7,1,25.,24.0,0.,24.0,1.,24.0,0.,24.0
1981-08-30 19:05:22.810 ,7,0,35.,24.0,0.,24.0,0.,24.0,0.,24.0
1981-08-30 19:05:46.810 ,6,1,26.,24.0,0.,24.0,0.,24.0,0.,24.0
1981-08-30 19:06:10.810 ,6,0,0.,24.0,0.,24.0,0.,24.0,0.,24.0
1981-08-30 19:06:34.810 ,5,1,0.,24.0,0.,24.0,0.,24.0,0.,24.0
1981-08-30 19:06:58.810 ,5,0,0.,24.0,0.,24.0,0.,24.0,0.,24.0
1981-08-30 19:07:22.810 ,4,1,0.,24.0,0.,24.0,0.,24.0,0.,24.0
1981-08-30 19:07:46.810 ,4,0,0.,24.0,0.,24.0,0.,24.0,0.,24.0
1981-08-30 19:08:10.810 ,3,1,0.,24.0,0.,24.0,1.,24.0,0.,24.0
1981-08-30 19:08:34.810 ,3,0,0.,24.0,0.,24.0,1.,24.0,0.,24.0
1981-08-30 19:08:58.810 ,2,1,0.,24.0,0.,24.0,0.,24.0,0.,24.0
1981-08-30 19:09:22.810 ,2,0,0.,24.0,0.,24.0,0.,24.0,0.,24.0
1981-08-30 19:09:46.810 ,1,1,0.,24.0,0.,24.0,0.,24.0,0.,24.0
1981-08-30 19:10:10.810 ,1,0,0.,24.0,0.,24.0,1.,24.0,0.,24.0
1981-08-30 19:10:34.810 ,0,1,0.,24.0,0.,24.0,0.,24.0,0.,24.0
1981-08-30 19:10:58.810 ,0,0,0.,24.0,0.,24.0,0.,24.0,0.,24.0
1981-08-30 19:11:22.810 ,0,1,0.,24.0,0.,24.0,0.,24.0,0.,24.0
1981-08-30 19:11:46.810 ,0,0,0.,24.0,0.,24.0,0.,24.0,0.,24.0
1981-08-30 19:12:10.810 ,1,1,1.,24.0,0.,24.0,1.,24.0,0.,24.0
1981-08-30 19:12:34.810 ,1,0,0.,24.0,0.,24.0,0.,24.0,0.,24.0
1981-08-30 19:12:58.810 ,2,1,0.,24.0,0.,24.0,1.,24.0,0.,24.0
1981-08-30 19:13:22.810 ,2,0,0.,24.0,0.,24.0,0.,24.0,0.,24.0
1981-08-30 19:13:46.810 ,3,1,0.,24.0,0.,24.0,0.,24.0,0.,24.0
1981-08-30 19:14:10.810 ,4,1,0.,24.0,0.,24.0,0.,24.0,0.,24.0
1981-08-30 19:14:34.810 ,5,1,0.,24.0,0.,24.0,1.,24.0,0.,24.0
1981-08-30 19:14:58.810 ,6,1,0.,24.0,0.,24.0,2.,24.0,0.,24.0
1981-08-30 19:15:22.810 ,7,1,5.,24.0,0.,24.0,0.,24.0,0.,24.0
1981-08-30 19:15:46.810 ,7,1,41.,24.0,0.,24.0,0.,24.0,0.,24.0
1981-08-30 19:16:10.810 ,6,1,19.,24.0,0.,24.0,0.,24.0,0.,24.0
1981-08-30 19:16:34.810 ,5,1,0.,24.0,0.,24.0,1.,24.0,0.,24.0
1981-08-30 19:16:58.810 ,4,1,0.,24.0,0.,24.0,1.,24.0,0.,24.0
1981-08-30 19:17:22.810 ,3,1,0.,24.0,0.,24.0,0.,24.0,0.,24.0
1981-08-30 19:17:46.810 ,2,1,0.,24.0,0.,24.0,0.,24.0,0.,24.0
1981-08-30 19:18:10.810 ,1,1,0.,24.0,0.,24.0,0.,24.0,0.,24.0
1981-08-30 19:18:34.810 ,0,1,1.,24.0,0.,24.0,0.,24.0,0.,24.0
1981-08-30 19:18:58.810 ,0,1,0.,24.0,0.,24.0,0.,24.0,0.,24.0
1981-08-30 19:19:22.810 ,1,1,1.,24.0,0.,24.0,1.,24.0,0.,24.0
1981-08-30 19:19:46.810 ,2,1,0.,24.0,0.,24.0,0.,24.0,0.,24.0
1981-08-30 19:20:10.810 ,3,1,1.,24.0,0.,24.0,0.,24.0,0.,24.0
1981-08-30 19:20:34.810 ,3,0,0.,24.0,0.,24.0,0.,24.0,0.,24.0
1981-08-30 19:20:58.810 ,4,1,0.,24.0,0.,24.0,1.,24.0,0.,24.0
1981-08-30 19:21:22.810 ,4,0,0.,24.0,0.,24.0,0.,24.0,0.,24.0
1981-08-30 19:21:46.810 ,5,1,0.,24.0,0.,24.0,0.,24.0,0.,24.0
1981-08-30 19:22:10.810 ,5,0,0.,24.0,0.,24.0,1.,24.0,0.,24.0
1981-08-30 19:22:34.810 ,6,1,0.,24.0,0.,24.0,0.,24.0,0.,24.0
1981-08-30 19:22:58.810 ,6,0,0.,24.0,0.,24.0,0.,24.0,0.,24.0
1981-08-30 19:23:22.810 ,7,1,5.,24.0,0.,24.0,0.,24.0,0.,24.0
1981-08-30 19:23:46.810 ,7,0,26.,24.0,0.,24.0,0.,24.0,0.,24.0
1981-08-30 19:24:10.810 ,7,1,34.,24.0,0.,24.0,0.,24.0,0.,24.0
1981-08-30 19:24:34.810 ,7,0,36.,24.0,0.,24.0,0.,24.0,0.,24.0
1981-08-30 19:24:58.810 ,6,1,32.,24.0,0.,24.0,0.,24.0,0.,24.0
1981-08-30 19:25:22.810 ,6,0,0.,24.0,0.,24.0,0.,24.0,0.,24.0
1981-08-30 19:25:46.810 ,5,1,0.,24.0,0.,24.0,0.,24.0,0.,24.0
1981-08-30 19:26:10.810 ,5,0,0.,24.0,0.,24.0,0.,24.0,0.,24.0
1981-08-30 19:26:34.810 ,4,1,0.,24.0,0.,24.0,1.,24.0,0.,24.0
1981-08-30 19:26:58.810 ,4,0,0.,24.0,0.,24.0,0.,24.0,0.,24.0
1981-08-30 19:27:22.810 ,3,1,0.,24.0,0.,24.0,2.,24.0,0.,24.0
1981-08-30 19:27:46.810 ,3,0,0.,24.0,0.,24.0,0.,24.0,0.,24.0
1981-08-30 19:28:10.810 ,2,1,0.,24.0,0.,24.0,0.,24.0,0.,24.0
1981-08-30 19:28:34.810 ,2,0,0.,24.0,0.,24.0,1.,24.0,0.,24.0
1981-08-30 19:28:58.810 ,1,1,0.,24.0,0.,24.0,0.,24.0,0.,24.0
1981-08-30 19:29:22.810 ,1,0,0.,24.0,0.,24.0,0.,24.0,0.,24.0
1981-08-30 19:29:46.810 ,0,1,0.,24.0,0.,24.0,0.,24.0,0.,24.0
1981-08-30 19:30:10.810 ,0,0,0.,24.0,0.,24.0,0.,24.0,0.,24.0
1981-08-30 19:30:34.810 ,0,1,0.,24.0,0.,24.0,0.,24.0,0.,24.0
1981-08-30 19:30:58.810 ,0,0,0.,24.0,0.,24.0,0.,24.0,0.,24.0
1981-08-30 19:31:22.810 ,1,1,0.,24.0,0.,24.0,1.,24.0,0.,24.0
1981-08-30 19:31:46.810 ,1,0,0.,24.0,0.,24.0,0.,24.0,0.,24.0
1981-08-30 19:32:10.810 ,2,1,0.,24.0,0.,24.0,0.,24.0,0.,24.0
1981-08-30 19:32:34.810 ,2,0,1.,24.0,0.,24.0,0.,24.0,0.,24.0
1981-08-30 19:32:58.810 ,3,1,0.,24.0,0.,24.0,0.,24.0,0.,24.0
1981-08-30 19:33:22.810 ,4,1,0.,24.0,0.,24.0,0.,24.0,0.,24.0
1981-08-30 19:33:46.810 ,5,1,0.,24.0,0.,24.0,0.,24.0,0.,24.0
1981-08-30 19:34:10.810 ,6,1,0.,24.0,0.,24.0,0.,24.0,0.,24.0
1981-08-30 19:34:34.810 ,7,1,5.,24.0,0.,24.0,0.,24.0,0.,24.0
1981-08-30 19:34:58.810 ,7,1,30.,24.0,0.,24.0,0.,24.0,0.,24.0
1981-08-30 19:35:22.810 ,6,1,21.,24.0,1.,24.0,1.,24.0,0.,24.0
1981-08-30 19:35:46.810 ,5,1,0.,24.0,0.,24.0,1.,24.0,0.,24.0
1981-08-30 19:36:10.810 ,4,1,0.,24.0,0.,24.0,0.,24.0,0.,24.0
1981-08-30 19:36:34.810 ,3,1,0.,24.0,0.,24.0,0.,24.0,0.,24.0
1981-08-30 19:36:58.810 ,2,1,0.,24.0,0.,24.0,1.,24.0,0.,24.0
1981-08-30 19:37:22.810 ,1,1,0.,24.0,0.,24.0,0.,24.0,0.,24.0
1981-08-30 19:37:46.810 ,0,1,0.,24.0,0.,24.0,0.,24.0,0.,24.0
1981-08-30 19:38:10.810 ,0,1,0.,24.0,0.,24.0,0.,24.0,0.,24.0
1981-08-30 19:38:34.810 ,1,1,0.,24.0,0.,24.0,0.,24.0,0.,24.0
1981-08-30 19:38:58.810 ,2,1,0.,24.0,0.,24.0,0.,24.0,0.,24.0
1981-08-30 19:39:22.810 ,3,1,0.,24.0,0.,24.0,0.,24.0,0.,24.0
1981-08-30 19:39:46.810 ,3,0,0.,24.0,0.,24.0,1.,24.0,0.,24.0
1981-08-30 19:40:10.810 ,4,1,0.,24.0,0.,24.0,0.,24.0,0.,24.0
1981-08-30 19:40:34.810 ,4,0,0.,24.0,0.,24.0,0.,24.0,0.,24.0
1981-08-30 19:40:58.810 ,5,1,0.,24.0,0.,24.0,0.,24.0,0.,24.0
1981-08-30 19:41:22.810 ,5,0,0.,24.0,0.,24.0,0.,24.0,0.,24.0
1981-08-30 19:41:46.810 ,6,1,0.,24.0,0.,24.0,1.,24.0,0.,24.0
1981-08-30 19:42:10.810 ,6,0,0.,24.0,0.,24.0,0.,24.0,0.,24.0
1981-08-30 19:42:34.810 ,7,1,7.,24.0,0.,24.0,1.,24.0,0.,24.0
1981-08-30 19:42:58.810 ,7,0,28.,24.0,0.,24.0,0.,24.0,0.,24.0
1981-08-30 19:43:22.810 ,7,1,25.,24.0,0.,24.0,0.,24.0,0.,24.0
1981-08-30 19:43:46.810 ,7,0,41.,24.0,0.,24.0,1.,24.0,0.,24.0
1981-08-30 19:44:10.810 ,6,1,22.,24.0,0.,24.0,0.,24.0,0.,24.0
1981-08-30 19:44:34.810 ,6,0,0.,24.0,0.,24.0,0.,24.0,0.,24.0
1981-08-30 19:44:58.810 ,5,1,0.,24.0,0.,24.0,0.,24.0,0.,24.0
1981-08-30 19:45:22.810 ,5,0,0.,24.0,0.,24.0,0.,24.0,0.,24.0
1981-08-30 19:45:46.810 ,4,1,0.,24.0,0.,24.0,1.,24.0,0.,24.0
1981-08-30 19:46:10.810 ,4,0,0.,24.0,0.,24.0,0.,24.0,0.,24.0
1981-08-30 19:46:34.810 ,3,1,0.,24.0,0.,24.0,0.,24.0,0.,24.0
1981-08-30 19:46:58.810 ,3,0,0.,24.0,0.,24.0,0.,24.0,0.,24.0
1981-08-30 19:47:22.810 ,2,1,0.,24.0,0.,24.0,0.,24.0,0.,24.0
1981-08-30 19:47:46.810 ,2,0,0.,24.0,0.,24.0,0.,24.0,0.,24.0
1981-08-30 19:48:10.810 ,1,1,0.,24.0,0.,24.0,0.,24.0,0.,24.0
1981-08-30 19:48:34.810 ,1,0,1.,24.0,0.,24.0,2.,24.0,0.,24.0
1981-08-30 19:48:58.810 ,0,1,0.,24.0,0.,24.0,0.,24.0,0.,24.0
1981-08-30 19:49:22.810 ,0,0,0.,24.0,0.,24.0,1.,24.0,0.,24.0
1981-08-30 19:50:03.610 ,0,0,,0,,0,,0,,0
1981-08-30 19:50:10.810 ,0,0,0.,24.0,0.,24.0,0.,24.0,0.,24.0
1981-08-30 19:50:34.810 ,1,1,0.,24.0,0.,24.0,0.,24.0,0.,24.0
1981-08-30 19:50:58.810 ,1,0,0.,24.0,0.,24.0,0.,24.0,0.,24.0
1981-08-30 19:51:22.810 ,2,1,0.,24.0,0.,24.0,0.,24.0,0.,24.0
1981-08-30 19:51:46.810 ,2,0,0.,24.0,0.,24.0,1.,24.0,0.,24.0
1981-08-30 19:52:10.810 ,3,1,0.,24.0,0.,24.0,1.,24.0,0.,24.0
1981-08-30 19:52:34.810 ,4,1,0.,24.0,0.,24.0,0.,24.0,0.,24.0
1981-08-30 19:52:58.810 ,5,1,0.,24.0,0.,24.0,0.,24.0,0.,24.0
1981-08-30 19:53:22.810 ,6,1,0.,24.0,0.,24.0,0.,24.0,0.,24.0
1981-08-30 19:53:46.810 ,7,1,8.,24.0,0.,24.0,0.,24.0,0.,24.0
1981-08-30 19:54:10.810 ,7,1,31.,24.0,0.,24.0,0.,24.0,0.,24.0
1981-08-30 19:54:34.810 ,6,1,20.,24.0,0.,24.0,0.,24.0,0.,24.0
1981-08-30 19:54:58.810 ,5,1,0.,24.0,0.,24.0,1.,24.0,0.,24.0
1981-08-30 19:55:22.810 ,4,1,0.,24.0,0.,24.0,0.,24.0,0.,24.0
1981-08-30 19:55:46.810 ,3,1,0.,24.0,0.,24.0,0.,24.0,0.,24.0
1981-08-30 19:56:10.810 ,2,1,0.,24.0,0.,24.0,1.,24.0,0.,24.0
1981-08-30 19:56:34.810 ,1,1,0.,24.0,0.,24.0,0.,24.0,0.,24.0
1981-08-30 19:56:58.810 ,0,1,0.,24.0,0.,24.0,0.,24.0,0.,24.0
1981-08-30 19:57:22.810 ,0,1,0.,24.0,0.,24.0,0.,24.0,0.,24.0
1981-08-30 19:57:46.810 ,1,1,0.,24.0,0.,24.0,0.,24.0,0.,24.0
1981-08-30 19:58:10.810 ,2,1,0.,24.0,0.,24.0,0.,24.0,0.,24.0
1981-08-30 19:58:34.810 ,3,1,0.,24.0,0.,24.0,0.,24.0,0.,24.0
1981-08-30 19:58:58.810 ,3,0,0.,24.0,0.,24.0,0.,24.0,0.,24.0
1981-08-30 19:59:22.810 ,4,1,0.,24.0,0.,24.0,0.,24.0,0.,24.0
1981-08-30 19:59:46.810 ,4,0,0.,24.0,0.,24.0,1.,24.0,0.,24.0
1981-08-30 20:00:10.810 ,5,1,0.,24.0,0.,24.0,0.,24.0,0.,24.0
1981-08-30 20:00:34.810 ,5,0,0.,24.0,0.,24.0,1.,24.0,0.,24.0
1981-08-30 20:00:58.810 ,6,1,0.,24.0,0.,24.0,0.,24.0,0.,24.0
1981-08-30 20:01:22.810 ,6,0,0.,24.0,0.,24.0,0.,24.0,0.,24.0
1981-08-30 20:01:46.810 ,7,1,11.,24.0,0.,24.0,0.,24.0,0.,24.0
1981-08-30 20:02:10.810 ,7,0,20.,24.0,0.,24.0,0.,24.0,0.,24.0
1981-08-30 20:02:34.810 ,7,1,30.,24.0,0.,24.0,0.,24.0,0.,24.0
1981-08-30 20:02:58.810 ,7,0,25.,24.0,0.,24.0,1.,24.0,0.,24.0
1981-08-30 20:03:22.810 ,6,1,28.,24.0,0.,24.0,0.,24.0,0.,24.0
1981-08-30 20:03:46.810 ,6,0,0.,24.0,0.,24.0,0.,24.0,0.,24.0
1981-08-30 20:04:10.810 ,5,1,0.,24.0,0.,24.0,0.,24.0,0.,24.0
1981-08-30 20:04:34.810 ,5,0,0.,24.0,0.,24.0,1.,24.0,0.,24.0
1981-08-30 20:04:58.810 ,4,1,0.,24.0,0.,24.0,0.,24.0,0.,24.0
1981-08-30 20:05:22.810 ,4,0,1.,24.0,0.,24.0,1.,24.0,0.,24.0
1981-08-30 20:05:46.810 ,3,1,0.,24.0,0.,24.0,0.,24.0,0.,24.0
1981-08-30 20:06:10.810 ,3,0,0.,24.0,0.,24.0,1.,24.0,0.,24.0
1981-08-30 20:06:34.810 ,2,1,0.,24.0,0.,24.0,1.,24.0,0.,24.0
1981-08-30 20:06:58.810 ,2,0,0.,24.0,0.,24.0,2.,24.0,0.,24.0
1981-08-30 20:07:22.810 ,1,1,0.,24.0,0.,24.0,0.,24.0,0.,24.0
1981-08-30 20:07:46.810 ,1,0,0.,24.0,1.,24.0,0.,24.0,0.,24.0
1981-08-30 20:08:10.810 ,0,1,0.,24.0,0.,24.0,0.,24.0,0.,24.0
1981-08-30 20:08:34.810 ,0,0,0.,24.0,0.,24.0,0.,24.0,0.,24.0
1981-08-30 20:08:58.810 ,0,1,0.,24.0,0.,24.0,0.,24.0,0.,24.0
1981-08-30 20:09:22.810 ,0,0,0.,24.0,0.,24.0,0.,24.0,0.,24.0
1981-08-30 20:09:46.810 ,1,1,0.,24.0,0.,24.0,0.,24.0,0.,24.0
1981-08-30 20:10:10.810 ,1,0,0.,24.0,0.,24.0,0.,24.0,0.,24.0
1981-08-30 20:10:34.810 ,2,1,0.,24.0,0.,24.0,0.,24.0,0.,24.0
1981-08-30 20:10:58.810 ,2,0,0.,24.0,0.,24.0,0.,24.0,0.,24.0
1981-08-30 20:11:22.810 ,3,1,0.,24.0,0.,24.0,0.,24.0,0.,24.0
1981-08-30 20:11:46.810 ,4,1,0.,24.0,0.,24.0,0.,24.0,0.,24.0
1981-08-30 20:12:10.810 ,5,1,0.,24.0,0.,24.0,0.,24.0,0.,24.0
1981-08-30 20:12:34.810 ,6,1,0.,24.0,0.,24.0,0.,24.0,0.,24.0
1981-08-30 20:12:58.810 ,7,1,13.,24.0,0.,24.0,0.,24.0,0.,24.0
1981-08-30 20:13:22.810 ,7,1,21.,24.0,0.,24.0,0.,24.0,0.,24.0
1981-08-30 20:13:46.810 ,6,1,15.,24.0,0.,24.0,0.,24.0,0.,24.0
1981-08-30 20:14:10.810 ,5,1,0.,24.0,0.,24.0,0.,24.0,0.,24.0
1981-08-30 20:14:34.810 ,4,1,0.,24.0,0.,24.0,0.,24.0,0.,24.0
1981-08-30 20:14:58.810 ,3,1,0.,24.0,0.,24.0,0.,24.0,0.,24.0
1981-08-30 20:15:22.810 ,2,1,0.,24.0,0.,24.0,0.,24.0,0.,24.0
1981-08-30 20:15:46.810 ,1,1,0.,24.0,0.,24.0,0.,24.0,0.,24.0
1981-08-30 20:16:10.810 ,0,1,0.,24.0,0.,24.0,1.,24.0,0.,24.0
1981-08-30 20:16:34.810 ,0,1,0.,24.0,0.,24.0,0.,24.0,0.,24.0
1981-08-30 20:16:58.810 ,1,1,0.,24.0,0.,24.0,0.,24.0,0.,24.0
1981-08-30 20:17:22.810 ,2,1,0.,24.0,0.,24.0,0.,24.0,0.,24.0
1981-08-30 20:17:46.810 ,3,1,0.,24.0,0.,24.0,0.,24.0,0.,24.0
1981-08-30 20:18:10.810 ,3,0,0.,24.0,0.,24.0,0.,24.0,0.,24.0
1981-08-30 20:18:34.810 ,4,1,0.,24.0,0.,24.0,2.,24.0,0.,24.0
1981-08-30 20:18:58.810 ,4,0,0.,24.0,0.,24.0,0.,24.0,0.,24.0
1981-08-30 20:19:22.810 ,5,1,0.,24.0,0.,24.0,1.,24.0,0.,24.0
1981-08-30 20:19:46.810 ,5,0,0.,24.0,0.,24.0,1.,24.0,0.,24.0
1981-08-30 20:20:10.810 ,6,1,1.,24.0,0.,24.0,0.,24.0,0.,24.0
1981-08-30 20:20:34.810 ,6,0,1.,24.0,0.,24.0,1.,24.0,0.,24.0
1981-08-30 20:20:58.810 ,7,1,6.,24.0,0.,24.0,0.,24.0,0.,24.0
1981-08-30 20:21:22.810 ,7,0,34.,24.0,0.,24.0,0.,24.0,0.,24.0
1981-08-30 20:21:46.810 ,7,1,23.,24.0,0.,24.0,0.,24.0,0.,24.0
1981-08-30 20:22:10.810 ,7,0,36.,24.0,0.,24.0,0.,24.0,0.,24.0
1981-08-30 20:22:34.810 ,6,1,23.,24.0,0.,24.0,1.,24.0,0.,24.0
1981-08-30 20:22:58.810 ,6,0,0.,24.0,0.,24.0,0.,24.0,0.,24.0
1981-08-30 20:23:22.810 ,5,1,0.,24.0,0.,24.0,0.,24.0,0.,24.0
1981-08-30 20:23:46.810 ,5,0,0.,24.0,0.,24.0,0.,24.0,0.,24.0
1981-08-30 20:24:10.810 ,4,1,0.,24.0,0.,24.0,0.,24.0,0.,24.0
1981-08-30 20:24:34.810 ,4,0,0.,24.0,0.,24.0,0.,24.0,0.,24.0
1981-08-30 20:24:58.810 ,3,1,0.,24.0,0.,24.0,1.,24.0,0.,24.0
1981-08-30 20:25:22.810 ,3,0,0.,24.0,0.,24.0,0.,24.0,0.,24.0
1981-08-30 20:25:46.810 ,2,1,0.,24.0,0.,24.0,1.,24.0,0.,24.0
1981-08-30 20:26:10.810 ,2,0,0.,24.0,0.,24.0,0.,24.0,0.,24.0
1981-08-30 20:26:34.810 ,1,1,0.,24.0,0.,24.0,0.,24.0,0.,24.0
1981-08-30 20:26:58.810 ,1,0,0.,24.0,0.,24.0,0.,24.0,0.,24.0
1981-08-30 20:27:22.810 ,0,1,0.,24.0,0.,24.0,1.,24.0,0.,24.0
1981-08-30 20:27:46.810 ,0,0,0.,24.0,0.,24.0,0.,24.0,0.,24.0
1981-08-30 20:28:10.810 ,0,1,0.,24.0,0.,24.0,0.,24.0,0.,24.0
1981-08-30 20:28:34.810 ,0,0,0.,24.0,0.,24.0,0.,24.0,0.,24.0
1981-08-30 20:28:58.810 ,1,1,0.,24.0,0.,24.0,0.,24.0,0.,24.0
1981-08-30 20:29:22.810 ,1,0,0.,24.0,0.,24.0,0.,24.0,0.,24.0
1981-08-30 20:29:46.810 ,2,1,1.,24.0,0.,24.0,0.,24.0,0.,24.0
1981-08-30 20:30:10.810 ,2,0,0.,24.0,0.,24.0,1.,24.0,0.,24.0
1981-08-30 20:30:34.810 ,3,1,0.,24.0,0.,24.0,1.,24.0,0.,24.0
1981-08-30 20:30:58.810 ,4,1,0.,24.0,0.,24.0,0.,24.0,0.,24.0
1981-08-30 20:31:22.810 ,5,1,0.,24.0,0.,24.0,0.,24.0,0.,24.0
1981-08-30 20:31:46.810 ,6,1,0.,24.0,0.,24.0,0.,24.0,0.,24.0
1981-08-30 20:32:10.810 ,7,1,7.,24.0,0.,24.0,0.,24.0,0.,24.0
1981-08-30 20:32:34.810 ,7,1,20.,24.0,0.,24.0,0.,24.0,0.,24.0
1981-08-30 20:32:58.810 ,6,1,29.,24.0,0.,24.0,0.,24.0,0.,24.0
1981-08-30 20:33:22.810 ,5,1,0.,24.0,0.,24.0,1.,24.0,0.,24.0
1981-08-30 20:33:46.810 ,4,1,1.,24.0,0.,24.0,0.,24.0,0.,24.0
1981-08-30 20:34:10.800 ,3,1,0.,24.0,0.,24.0,0.,24.0,0.,24.0